Location: Grieser Field
(39.7333°N, 81.7975°W)
Time: 09:57:23
(UTC-04:00)

Meteor 2-1 Rocket - Visible Passes

Search period start: 23 April 2014 00:00
Search period end: 03 May 2014 00:00
Orbit: 829 x 909 km, 81.3° (Epoch: 22 April)

Date Brightness Start Highest point End Pass type
(mag) Time Alt. Az. Time Alt. Az. Time Alt. Az.
23 Apr 5.1 03:51:17 10° N 03:57:00 49° ENE 04:01:08 18° SE visible
23 Apr 5.5 05:35:31 10° NW 05:39:52 22° W 05:43:27 13° SW visible
24 Apr 5.0 03:44:44 10° N 03:50:28 50° ENE 03:53:48 24° SE visible
24 Apr 5.5 05:29:02 10° NW 05:33:19 21° W 05:36:08 15° WSW visible
25 Apr 5.0 03:38:11 10° N 03:43:56 51° ENE 03:46:36 30° SE visible
25 Apr 5.6 05:22:33 10° NW 05:26:45 21° W 05:28:57 17° WSW visible
26 Apr 4.9 03:31:39 10° N 03:37:24 52° ENE 03:39:30 35° SE visible
26 Apr 5.6 05:16:04 10° NW 05:20:12 20° W 05:21:52 18° WSW visible
27 Apr 4.9 03:25:06 10° N 03:30:52 54° ENE 03:32:30 41° SE visible
27 Apr 5.6 05:09:35 10° NW 05:13:39 20° W 05:14:51 19° WSW visible
28 Apr 4.8 03:18:33 10° N 03:24:20 55° ENE 03:25:33 46° ESE visible
28 Apr 5.6 05:03:06 10° NW 05:07:05 19° W 05:07:55 19° W visible
29 Apr 4.7 03:12:01 10° N 03:17:47 56° ENE 03:18:39 51° ESE visible
29 Apr 5.7 04:56:38 10° NW 05:00:31 19° W 05:01:01 19° W visible
30 Apr 4.7 03:05:28 10° N 03:11:15 57° ENE 03:11:48 55° ESE visible
30 Apr 5.7 04:50:09 10° NW 04:53:58 18° W 04:54:10 18° W visible
01 May 4.6 02:58:55 10° N 03:04:43 59° ENE 03:05:00 58° E visible
01 May 5.8 04:43:41 10° NW 04:47:22 18° W 04:47:22 18° W visible
02 May 4.6 02:52:23 10° N 02:58:10 60° ENE 02:58:13 60° E visible
02 May 5.9 04:37:13 10° NW 04:40:36 17° W 04:40:36 17° W visible
